Location: Dillon
(41.1766°N, 107.0923°W)
Time: 11:44:56
(UTC+00:00)

AO-92 - Pass Details

Date: 01 July 2022
Orbit: 469 x 481 km, 97.4° (Epoch: 10 August)

Event Time Altitude Azimuth Distance (km) Brightness Sun altitude
Exits shadow 05:36:13 44° 255° (WSW) 676 ? -22.0°
Maximum altitude 05:36:20 44° 261° (W) 674 ? -22.0°
Drops below altitude 10° 05:39:46 10° 335° (NNW) 1,663 ? -22.2°
Sets 05:41:55 0° 342° (NNW) 2,550 ? -22.4°
